This is the latest recevied weather packets stored in our database for station/object BMCB-10. If no packets are shown the sender has not sent any weather packets the latest 10 day(s).
| Time | Temp. | Humidity | Pressure | Rain* | Wind** | Luminosity | Snow |
|---|---|---|---|---|---|---|---|
| 1777812622 | 13.33° C | 99% | 1012.7 hPa | 1.27 mm | - | 94 W/m² | - |
| 1777800020 | 16.11° C | 70% | 1011.8 hPa | 0.25 mm | - | 238 W/m² | - |
| 1777797621 | 14.44° C | 93% | 1011.8 hPa | 0 mm | - | 220 W/m² | - |
| 1777795819 | 13.33° C | 10% | 1011.8 hPa | 0 mm | - | - | - |
| 1777793421 | 13.33° C | 10% | 1011.8 hPa | 0 mm | - | - | - |
| 1777786827 | 10.56° C | 10% | 1011.7 hPa | 0 mm | - | - | - |
| 1777775421 | 10.56° C | 10% | 1012.1 hPa | 0 mm | - | - | - |
| 1777774821 | 11.11° C | 10% | 1012.3 hPa | 0 mm | - | - | - |
| 1777772420 | 11.11° C | 10% | 1012.5 hPa | 0 mm | - | - | - |
| 1777767021 | 10.56° C | 10% | 1013.3 hPa | 0 mm | - | - | - |
| 1777762836 | 11.67° C | 10% | 1013.9 hPa | 0 mm | - | - | - |
| 1777756843 | 11.67° C | 10% | 1014.1 hPa | 0 mm | - | - | - |
| 1777752626 | 12.78° C | 10% | 1014.4 hPa | 0 mm | - | - | - |
| 1777746651 | 14.44° C | 10% | 1015 hPa | 2.29 mm | - | - | - |
| 1777746049 | 15° C | 10% | 1015.1 hPa | 1.78 mm | - | - | - |
| 1777741826 | 16.67° C | 88% | 1014.5 hPa | 2.54 mm | - | 102 W/m² | - |
| 1777738824 | 21.11° C | 76% | 1014.3 hPa | 0 mm | - | 216 W/m² | - |
| 1777737647 | 20.56° C | 83% | 1014.6 hPa | 0 mm | - | 100 W/m² | - |
| 1777725648 | 23.33° C | 56% | 1016.8 hPa | 0 mm | - | 254 W/m² | - |
| 1777720222 | 22.78° C | 58% | 1017.9 hPa | 0 mm | - | 610 W/m² | - |
| 1777717222 | 21.67° C | 59% | 1018.5 hPa | 0 mm | - | 702 W/m² | - |
| 1777706427 | 13.33° C | 89% | 1020 hPa | 0 mm | - | 158 W/m² | - |
| 1777703421 | 10.56° C | 94% | 1020.2 hPa | 0 mm | - | 90 W/m² | - |
| 1777695638 | 5.56° C | 97% | 1019.9 hPa | 0 mm | - | 8 W/m² | - |
| 1777695035 | 6.11° C | 97% | 1020.1 hPa | 0 mm | - | 6 W/m² | - |
* Rain latest hour (hover to see other rain measurements)
** Current wind speed in m/s (hover to see current wind gust speed)